Wind_Speed
72 71 71 72 75 75 73 73 74 67 59 45 40 43 43 43 43 43 43 44 44 45 47 48 49 50 48 50 54 59 64 68 70 72 71 71 69 68 67 69 71 72 73
74 70 70 73 72 71 68 69 65 61 45 40 38 41 44 46 47 48 49 51 52 53 54 54 54 54 53 55 55 56 61 67 71 75 78 77 76 76 75 74 75 78 78
68 65 67 69 70 67 65 62 59 51 43 42 41 45 47 48 49 50 51 52 53 54 55 57 58 60 60 61 61 61 62 63 66 73 79 83 86 87 86 84 84 82 82
62 65 70 70 69 63 60 57 53 47 45 44 45 46 46 46 47 48 50 52 54 55 56 57 59 61 62 65 66 68 69 70 71 72 74 75 79 86 91 94 95 95 94
66 71 70 69 61 57 53 50 48 46 43 43 45 46 47 47 48 51 53 55 56 58 60 62 64 67 69 71 72 73 74 76 77 78 79 80 81 83 85 86 89 94 99
73 72 66 58 53 53 47 44 43 42 44 46 47 47 50 51 52 53 55 57 59 61 65 66 68 71 74 77 79 80 81 82 84 84 84 85 87 88 89 90 91 92 94
65 59 54 52 50 46 42 42 43 44 47 49 50 51 53 56 58 61 64 67 69 71 74 75 78 81 83 84 85 86 88 89 90 90 91 93 95 95 96 97 97 98 98
52 51 51 48 45 43 42 43 46 48 50 53 55 57 59 61 64 68 70 74 76 79 81 84 87 90 92 93 93 93 94 95 96 97 97 98 99 100 102 103 104 105 106
47 47 45 42 41 42 43 46 48 52 54 57 59 59 61 65 67 76 80 82 83 87 89 93 97 99 100 100 99 98 97 98 99 101 102 104 105 106 107 108 109 110 111
43 42 41 42 41 44 48 51 53 56 58 62 63 66 67 68 71 74 86 93 96 99 103 108 109 108 104 101 98 97 97 98 99 102 104 105 106 107 108 110 111 113 114
41 41 42 42 46 50 53 55 59 61 65 66 70 73 75 77 80 79 77 90 98 105 110 110 103 99 98 97 97 97 97 98 100 102 105 107 109 111 112 113 114 115 117
42 42 44 47 51 55 58 61 64 67 69 71 75 77 81 83 90 93 92 95 98 107 108 100 99 100 100 100 101 103 104 105 106 106 107 109 111 112 112 113 113 114 113
46 47 48 52 56 60 63 66 69 71 73 78 81 84 87 91 96 100 103 104 107 101 92 93 97 99 99 102 104 106 106 107 107 107 109 110 111 112 113 113 113 114 113
49 50 54 58 62 66 68 70 73 76 80 84 87 90 94 100 104 108 112 115 104 96 97 92 93 96 98 98 99 101 103 107 112 115 117 118 120 122 123 122 121 120 119
53 55 58 63 66 70 73 75 79 82 86 90 93 97 102 107 112 116 121 112 108 99 87 92 92 94 98 102 106 109 113 117 121 125 127 130 132 131 130 128 127 127 126
57 60 63 67 71 74 77 80 83 86 92 96 99 103 109 113 118 123 114 113 109 102 91 93 96 101 106 111 117 121 123 124 124 124 123 124 123 124 124 123 123 122 123
61 64 67 71 75 77 81 84 88 93 97 101 105 110 115 119 122 114 113 108 106 106 106 103 112 116 120 124 126 121 116 113 110 111 111 111 108 107 107 108 108 107 107
65 69 72 75 78 82 85 89 94 98 102 107 111 115 120 120 114 111 106 105 111 116 120 119 120 124 128 126 119 113 107 104 102 99 98 97 98 98 98 97 97 98 99
69 72 75 79 83 87 91 95 99 103 108 111 115 120 116 113 108 105 108 114 120 124 129 129 126 122 116 111 105 101 97 96 92 88 89 89 86 86 85 84 85 85 86
71 75 79 83 88 92 97 100 103 107 112 115 119 112 111 106 103 110 116 123 127 130 131 125 117 109 103 99 95 90 88 85 81 78 82 75 75 74 73 74 75 74 75
75 78 83 88 91 96 98 102 106 111 115 115 110 109 103 104 111 118 124 128 133 131 121 112 106 99 95 92 88 84 79 77 74 71 72 64 69 65 66 65 65 66 67
77 81 86 90 93 96 101 105 109 114 110 108 103 100 106 112 118 125 130 134 132 119 106 101 99 96 92 85 83 77 73 67 68 64 64 56 59 57 58 54 56 58 58
80 83 87 91 96 100 105 109 111 105 105 99 100 106 112 118 125 129 132 127 118 111 103 97 94 89 85 79 75 70 65 58 54 58 60 47 51 47 49 50 50 48 48
82 86 91 95 100 104 108 104 102 99 95 100 108 113 118 123 131 131 121 115 111 104 100 94 87 83 76 70 65 61 58 54 46 51 51 47 46 39 40 42 42 39 41
86 91 94 99 104 104 98 99 93 94 101 107 113 119 125 129 129 118 112 108 103 101 93 85 79 73 67 61 58 56 52 49 44 41 42 41 41 37 35 34 31 32 34
89 94 99 101 95 97 91 87 93 99 105 110 116 125 130 129 118 112 106 101 99 91 85 79 71 63 59 55 51 49 48 47 41 41 37 37 36 38 31 32 26 26 28
Wind_Direction
278 280 285 288 292 295 297 300 301 298 297 295 294 296 297 300 303 303 301 300 299 298 297 295 291 287 284 278 274 269 265 262 260 261 262 261 260 260 264 265 267 268 269
278 281 284 289 292 295 299 298 296 296 293 294 297 299 302 304 303 302 301 300 299 299 298 297 294 292 289 284 279 274 271 268 266 264 261 262 262 262 260 261 263 265 266
279 279 283 288 293 297 294 293 295 294 293 296 299 300 301 300 300 299 298 298 297 297 296 295 292 291 290 288 285 282 278 273 270 266 265 264 262 261 262 262 260 260 261
272 278 284 288 293 291 288 290 292 294 295 297 298 297 297 298 299 298 297 297 297 296 295 294 293 292 289 288 286 284 282 279 276 273 270 267 265 264 264 263 261 261 262
273 278 282 287 286 283 284 289 291 293 295 295 295 296 297 298 298 297 297 297 297 296 295 294 292 290 288 286 284 282 280 278 277 276 274 272 270 268 267 265 264 263 262
272 277 281 281 280 280 283 288 290 294 294 293 294 296 298 298 298 297 297 296 297 298 296 294 292 291 289 287 284 282 280 278 276 275 274 272 271 270 269 268 267 266 265
272 276 276 276 276 281 282 283 288 289 290 292 296 296 296 297 298 298 299 299 298 297 297 297 296 294 293 291 287 282 279 277 275 274 272 272 271 271 270 268 267 266 266
272 274 273 274 276 278 282 284 284 287 288 289 290 293 295 295 295 297 298 297 297 296 295 294 294 293 292 291 287 284 280 277 275 274 273 272 271 270 268 267 266 266 265
272 270 271 273 273 279 281 282 283 286 286 287 287 290 291 296 300 304 302 299 298 297 295 295 295 293 290 288 286 282 279 275 273 271 270 269 268 268 267 267 266 266 266
268 269 269 272 275 278 279 281 283 284 286 286 288 289 292 294 296 300 304 304 304 303 302 300 298 296 293 289 287 284 281 279 276 274 273 271 270 268 267 265 265 265 264
265 267 271 274 276 277 280 281 284 286 288 288 288 290 292 293 294 294 296 299 302 301 302 300 297 295 292 291 288 285 283 280 278 277 276 275 273 271 270 269 267 265 263
267 271 273 276 278 279 282 284 286 287 287 289 291 292 293 294 298 300 300 299 300 301 300 298 297 295 293 291 289 287 286 284 282 280 277 275 274 274 272 271 270 269 267
272 273 275 278 279 281 284 285 287 289 291 294 294 295 295 297 300 300 301 301 302 300 296 295 293 291 291 291 289 287 285 284 282 281 279 277 275 273 271 270 270 269 268
272 275 277 279 281 283 286 288 289 290 293 296 297 297 299 301 301 301 303 303 302 300 298 296 293 290 288 287 286 285 284 283 282 280 278 277 276 274 273 272 271 270 269
276 278 279 281 284 287 288 290 292 293 297 298 299 300 300 301 302 304 304 304 303 299 297 295 294 292 289 287 285 284 282 280 279 278 277 277 277 276 276 275 273 271 270
278 280 282 284 286 289 292 294 295 298 299 301 302 301 302 303 304 305 305 304 303 301 299 296 292 291 290 290 290 288 287 285 283 282 281 278 277 276 276 274 272 270 268
279 282 284 286 288 291 293 295 297 300 301 302 302 302 303 305 306 306 305 303 303 301 299 299 298 298 298 296 293 291 289 286 285 284 282 281 280 278 275 273 272 271 269
280 283 285 288 290 292 294 296 299 300 302 302 303 304 305 307 306 305 305 304 302 301 302 302 302 302 300 297 296 295 294 291 289 287 285 282 279 277 275 274 273 271 270
282 284 286 288 291 293 296 297 299 301 302 303 303 305 306 306 305 305 304 304 303 303 303 306 305 302 300 299 298 296 293 292 290 289 286 282 282 280 277 275 273 270 268
283 286 287 290 291 295 297 299 300 301 302 304 306 306 305 305 306 305 304 304 304 305 307 307 305 304 303 301 299 298 298 295 293 291 287 286 285 282 280 277 275 274 271
285 287 289 291 294 296 298 299 301 302 304 306 305 304 305 306 306 306 304 305 307 309 308 307 306 305 305 304 303 302 299 297 296 293 290 290 285 282 279 277 275 272 269
288 290 293 294 296 298 298 300 302 304 305 305 304 306 307 306 307 306 307 310 309 308 308 310 310 310 308 307 304 302 300 300 299 295 291 293 288 287 283 279 273 271 271
290 292 294 296 297 300 300 302 305 304 304 304 307 307 307 308 306 307 310 311 311 311 312 312 312 310 308 306 304 304 302 301 300 297 296 298 290 289 285 281 277 277 274
292 295 296 298 299 300 303 304 304 304 305 308 308 309 309 308 307 310 313 313 312 312 312 313 312 310 309 308 306 305 305 303 303 299 301 301 296 291 286 282 283 279 274
295 297 298 299 302 303 303 304 304 307 309 309 309 310 308 307 310 314 314 313 313 313 313 312 311 310 310 309 309 308 307 307 307 304 304 302 301 298 295 287 284 280 274
296 298 300 302 302 303 304 305 308 308 309 310 311 308 308 312 315 314 313 313 314 312 313 312 312 312 311 310 309 310 310 311 313 312 308 306 304 301 299 295 291 285 282
Height
10766 10766 10763 10761 10759 10756 10751 10746 10740 10734 10730 10726 10723 10720 10716 10713 10710 10707 10703 10700 10697 10695 10692 10689 10685 10682 10683 10681 10679 10679 10677 10678 10678 10679 10680 10680 10681 10681 10683 10684 10684 10684 10684
10754 10754 10751 10750 10748 10744 10738 10733 10727 10723 10719 10717 10713 10710 10706 10703 10701 10698 10694 10691 10687 10685 10681 10679 10676 10672 10672 10668 10667 10666 10664 10663 10662 10663 10662 10663 10664 10664 10664 10666 10667 10667 10668
10742 10740 10740 10738 10736 10731 10726 10721 10716 10712 10708 10706 10703 10700 10697 10694 10691 10688 10684 10681 10677 10674 10671 10668 10664 10660 10658 10655 10654 10652 10651 10648 10646 10645 10644 10645 10644 10645 10645 10645 10647 10648 10649
10729 10728 10727 10726 10723 10719 10715 10710 10706 10701 10698 10695 10694 10689 10687 10684 10680 10677 10673 10670 10666 10662 10659 10656 10653 10649 10645 10641 10638 10636 10634 10631 10629 10627 10626 10626 10623 10623 10624 10624 10625 10626 10627
10717 10717 10716 10714 10710 10707 10704 10700 10696 10692 10687 10685 10683 10680 10676 10673 10670 10666 10662 10658 10654 10650 10646 10643 10639 10634 10630 10625 10621 10618 10615 10612 10609 10607 10606 10605 10603 10601 10600 10602 10602 10602 10603
10705 10705 10704 10701 10698 10696 10693 10689 10686 10682 10677 10675 10673 10670 10666 10663 10659 10655 10651 10646 10642 10637 10631 10628 10623 10618 10612 10607 10602 10597 10594 10590 10587 10585 10584 10582 10580 10579 10579 10578 10577 10576 10576
10692 10692 10690 10688 10687 10685 10682 10680 10677 10672 10668 10664 10660 10659 10656 10651 10646 10640 10636 10631 10627 10621 10614 10609 10604 10597 10592 10587 10580 10575 10570 10565 10562 10560 10558 10555 10553 10553 10552 10550 10549 10549 10549
10681 10680 10678 10677 10675 10674 10671 10669 10667 10663 10659 10654 10650 10646 10641 10638 10634 10626 10621 10615 10610 10603 10597 10591 10584 10577 10570 10563 10556 10550 10544 10539 10535 10532 10529 10526 10524 10523 10520 10518 10518 10518 10518
10670 10668 10667 10666 10665 10663 10661 10658 10655 10652 10648 10644 10638 10634 10630 10623 10619 10605 10596 10592 10590 10581 10573 10565 10557 10550 10542 10535 10528 10522 10517 10511 10507 10503 10499 10495 10493 10490 10489 10487 10486 10486 10486
10659 10658 10657 10656 10655 10653 10649 10646 10642 10639 10635 10630 10626 10620 10615 10613 10609 10605 10582 10565 10558 10549 10540 10529 10520 10511 10504 10498 10493 10488 10483 10478 10473 10469 10465 10462 10459 10457 10456 10455 10454 10454 10453
10649 10649 10648 10647 10644 10641 10637 10634 10630 10626 10621 10617 10610 10604 10597 10592 10587 10590 10589 10568 10549 10530 10519 10505 10491 10480 10469 10463 10458 10454 10450 10445 10441 10435 10430 10425 10421 10417 10415 10413 10414 10415 10415
10640 10639 10638 10635 10633 10629 10624 10620 10616 10611 10606 10600 10594 10587 10579 10573 10563 10556 10556 10550 10543 10524 10501 10481 10464 10453 10443 10434 10426 10418 10412 10407 10401 10397 10391 10385 10379 10374 10371 10370 10370 10369 10371
10630 10629 10627 10625 10621 10616 10612 10606 10601 10595 10589 10582 10574 10564 10557 10550 10540 10530 10523 10519 10514 10500 10485 10472 10451 10433 10419 10408 10398 10386 10378 10371 10365 10359 10352 10345 10339 10334 10331 10330 10329 10329 10331
10621 10619 10616 10612 10608 10603 10597 10591 10585 10578 10571 10562 10553 10544 10532 10523 10511 10501 10491 10483 10480 10467 10458 10444 10427 10411 10398 10386 10375 10365 10355 10342 10329 10318 10310 10304 10298 10293 10291 10291 10291 10292 10293
10610 10607 10603 10599 10594 10588 10582 10575 10568 10560 10550 10541 10531 10520 10509 10497 10484 10470 10456 10441 10433 10438 10439 10416 10399 10384 10369 10355 10343 10333 10322 10309 10297 10285 10276 10264 10255 10250 10247 10250 10250 10249 10249
10597 10594 10589 10584 10579 10573 10567 10558 10549 10540 10530 10519 10509 10497 10483 10472 10456 10439 10424 10410 10394 10387 10397 10383 10372 10356 10342 10325 10306 10288 10274 10262 10250 10239 10230 10219 10214 10208 10202 10195 10193 10195 10197
10584 10580 10575 10569 10563 10557 10550 10541 10531 10521 10509 10497 10485 10473 10458 10444 10427 10410 10396 10381 10366 10350 10346 10358 10330 10316 10300 10276 10260 10243 10229 10218 10209 10194 10181 10172 10169 10165 10158 10151 10147 10146 10145
10571 10566 10561 10554 10547 10539 10532 10523 10512 10500 10488 10475 10462 10447 10431 10416 10399 10383 10369 10354 10338 10318 10303 10302 10301 10279 10253 10228 10212 10199 10187 10174 10165 10156 10149 10139 10127 10120 10115 10114 10113 10110 10108
10557 10552 10546 10538 10530 10522 10512 10503 10492 10478 10465 10452 10437 10422 10406 10391 10375 10360 10343 10326 10308 10290 10269 10256 10254 10232 10211 10189 10178 10165 10153 10139 10130 10123 10107 10098 10097 10090 10083 10081 10078 10076 10075
10543 10537 10530 10523 10513 10504 10493 10482 10470 10456 10442 10427 10411 10394 10379 10365 10350 10334 10317 10296 10275 10257 10242 10225 10204 10186 10172 10155 10142 10135 10118 10106 10099 10090 10072 10074 10064 10058 10057 10050 10048 10049 10048
10528 10522 10515 10506 10497 10486 10473 10461 10449 10435 10419 10402 10385 10369 10355 10341 10324 10306 10284 10266 10241 10223 10208 10191 10172 10155 10139 10125 10110 10100 10092 10078 10069 10059 10046 10050 10033 10035 10030 10027 10024 10021 10020
10514 10506 10497 10487 10477 10466 10453 10440 10427 10412 10394 10378 10363 10347 10332 10315 10297 10275 10253 10230 10204 10186 10178 10159 10140 10125 10108 10099 10084 10074 10063 10056 10041 10037 10023 10028 10012 10012 10005 10006 10000 9997 9997
10497 10489 10480 10469 10456 10445 10431 10418 10403 10386 10370 10354 10339 10324 10308 10287 10265 10245 10227 10200 10172 10154 10142 10133 10118 10100 10087 10075 10060 10050 10041 10036 10028 10012 10002 10007 9994 9995 9987 9981 9979 9981 9979
10480 10470 10460 10449 10436 10423 10410 10394 10379 10362 10347 10332 10314 10296 10278 10258 10232 10217 10199 10174 10151 10134 10121 10107 10094 10079 10066 10053 10042 10033 10023 10015 10013 9999 9990 9984 9978 9979 9972 9966 9965 9965 9962
10462 10451 10440 10427 10414 10399 10385 10370 10356 10341 10326 10309 10287 10264 10245 10228 10211 10191 10170 10149 10129 10113 10098 10088 10075 10060 10047 10036 10025 10014 10007 10000 9995 9990 9981 9973 9965 9961 9959 9956 9955 9951 9948
10442 10430 10417 10406 10392 10379 10364 10350 10336 10321 10306 10289 10265 10237 10215 10198 10179 10160 10141 10125 10110 10093 10078 10065 10055 10044 10031 10020 10011 10003 9993 9986 9983 9973 9970 9963 9957 9950 9950 9943 9944 9940 9937